Location: Hylvaty SDH
(49.9612°N, 16.4057°E)
Time: 20:14:35
(UTC+01:00)

Vanguard 1 Rocket - Pass Details

Date: 10 October 2020
Orbit: 656 x 4221 km, 34.3° (Epoch: 30 October)

Event Time Altitude Azimuth Distance (km) Brightness Sun altitude
Rises 16:08:27 0° 224° (SW) 3,758 12.2 17.6°
Reaches altitude 10° 16:11:01 10° 212° (SSW) 3,109 11.6 17.2°
Maximum altitude 16:17:33 28° 155° (SSE) 2,751 10.1 16.4°
Drops below altitude 10° 16:28:18 10° 104° (ESE) 5,260 10.9 14.9°
Sets 16:34:22 0° 96° (E) 6,922 11.4 14.1°
